Simultaneous Nadir Overpasses (SNOs) Predictions

Prediction of SNOs between AQUA and METOP-A Satellite Orbit:

Table of predicted SNOs for the next 14.0 days since TLE Epoch: 3/29/2013
Index Date (AQUA) Time (AQUA) Lat,Lon (AQUA) SZA (AQUA ) Date (METOP-A) Time (METOP-A) Lat,Lon (METOP-A) SZA (METOP-A ) Distance(km) Time Diff (sec)
1 03/29/2013 12:01:31 73.87, -6.23 70.36 03/29/2013 12:00:30 73.85, -6.22 70.35 2.90 61
2 03/29/2013 12:50:58 -73.95, 161.23 109.57 03/29/2013 12:51:10 -73.95, 161.35 109.58 3.67 12
3 03/29/2013 13:40:33 74.33, -32.00 70.83 03/29/2013 13:41:42 74.32, -30.37 70.76 48.84 69
4 04/01/2013 07:35:50 73.88, 60.17 69.27 04/01/2013 07:34:55 73.88, 60.24 69.27 2.42 55
5 04/01/2013 08:25:16 -73.91,-132.24 110.72 04/01/2013 08:25:36 -73.93,-132.30 110.70 2.76 20
6 04/01/2013 09:14:57 74.60, 33.78 70.02 04/01/2013 09:16:02 74.60, 36.74 69.91 87.40 65
7 04/04/2013 03:10:09 73.87, 126.63 68.18 04/04/2013 03:09:22 73.85, 126.58 68.16 2.93 47
8 04/04/2013 03:59:36 -73.95, -65.90 111.76 04/04/2013 04:00:02 -73.95, -65.85 111.76 1.58 26
9 04/06/2013 22:44:28 73.89,-166.98 67.12 04/06/2013 22:43:48 73.87,-166.98 67.11 2.49 40
10 04/06/2013 23:33:55 -73.96, 0.50 112.82 04/06/2013 23:34:28 -73.97, 0.59 112.82 3.04 33
11 04/09/2013 18:18:45 73.89,-100.54 66.06 04/09/2013 18:18:13 73.88,-100.55 66.06 0.54 32
12 04/09/2013 19:08:12 -73.95, 66.95 113.89 04/09/2013 19:08:54 -73.93, 66.90 113.91 2.45 42




NCC Satellite Simultaneous Nadir Overpasses (SNOs) Prediction Service
